Year,Month,Day,Hour,Minute,Value (Times are PST for temperature in C)
2006,06,26,00,00,17.70
2006,06,26,00,01,17.70
2006,06,26,00,02,17.70
2006,06,26,00,03,17.60
2006,06,26,00,04,17.60
2006,06,26,00,05,17.60
2006,06,26,00,06,17.60
2006,06,26,00,07,17.60
2006,06,26,00,08,17.50
2006,06,26,00,09,17.50
2006,06,26,00,10,17.50
2006,06,26,00,11,17.50
2006,06,26,00,12,17.40
2006,06,26,00,13,17.40
2006,06,26,00,14,17.40
2006,06,26,00,15,17.40
2006,06,26,00,16,17.40
2006,06,26,00,17,17.40
2006,06,26,00,18,17.30
2006,06,26,00,19,17.30
2006,06,26,00,20,17.30
2006,06,26,00,21,17.30
2006,06,26,00,22,17.20
2006,06,26,00,23,17.20
2006,06,26,00,24,17.20
2006,06,26,00,25,17.20
2006,06,26,00,26,17.20
2006,06,26,00,27,17.10
2006,06,26,00,28,17.10
2006,06,26,00,29,17.10
2006,06,26,00,30,17.10
2006,06,26,00,31,17.10
2006,06,26,00,32,17.10
2006,06,26,00,33,17.10
2006,06,26,00,34,17.00
2006,06,26,00,35,17.00
2006,06,26,00,36,16.90
2006,06,26,00,37,17.00
2006,06,26,00,38,16.90
2006,06,26,00,39,16.90
2006,06,26,00,40,16.90
2006,06,26,00,41,16.90
2006,06,26,00,42,16.80
2006,06,26,00,43,16.80
2006,06,26,00,44,16.80
2006,06,26,00,45,16.80
2006,06,26,00,46,16.70
2006,06,26,00,47,16.70
2006,06,26,00,48,16.70
2006,06,26,00,49,16.70
2006,06,26,00,50,16.70
2006,06,26,00,51,16.60
2006,06,26,00,52,16.60
2006,06,26,00,53,16.60
2006,06,26,00,54,16.60
2006,06,26,00,55,16.50
2006,06,26,00,56,16.50
2006,06,26,00,57,16.50
2006,06,26,00,58,16.50
2006,06,26,00,59,16.40
2006,06,26,01,00,16.40
2006,06,26,01,01,16.40
2006,06,26,01,02,16.40
2006,06,26,01,03,16.30
2006,06,26,01,04,16.30
2006,06,26,01,05,16.30
2006,06,26,01,06,16.30
2006,06,26,01,07,16.30
2006,06,26,01,08,16.30
2006,06,26,01,09,16.30
2006,06,26,01,10,16.30
2006,06,26,01,11,16.30
2006,06,26,01,12,16.20
2006,06,26,01,13,16.20
2006,06,26,01,14,16.20
2006,06,26,01,15,16.20
2006,06,26,01,16,16.20
2006,06,26,01,17,16.20
2006,06,26,01,18,16.20
2006,06,26,01,19,16.10
2006,06,26,01,20,16.10
2006,06,26,01,21,16.10
2006,06,26,01,22,16.10
2006,06,26,01,23,16.10
2006,06,26,01,24,16.10
2006,06,26,01,25,16.00
2006,06,26,01,26,16.00
2006,06,26,01,27,16.00
2006,06,26,01,28,16.00
2006,06,26,01,29,16.00
2006,06,26,01,30,16.00
2006,06,26,01,31,16.00
2006,06,26,01,32,16.00
2006,06,26,01,33,16.00
2006,06,26,01,34,16.00
2006,06,26,01,35,15.90
2006,06,26,01,36,15.90
2006,06,26,01,37,15.90
2006,06,26,01,38,15.90
2006,06,26,01,39,15.90
2006,06,26,01,40,15.90
2006,06,26,01,41,15.90
2006,06,26,01,42,15.80
2006,06,26,01,43,15.80
2006,06,26,01,44,15.80
2006,06,26,01,45,15.80
2006,06,26,01,46,15.80
2006,06,26,01,47,15.80
2006,06,26,01,48,15.80
2006,06,26,01,49,15.80
2006,06,26,01,50,15.80
2006,06,26,01,51,15.80
2006,06,26,01,52,15.80
2006,06,26,01,53,15.70
2006,06,26,01,54,15.70
2006,06,26,01,55,15.70
2006,06,26,01,56,15.80
2006,06,26,01,57,15.80
2006,06,26,01,58,15.80
2006,06,26,01,59,15.80
2006,06,26,02,00,15.80
2006,06,26,02,01,15.90
2006,06,26,02,02,15.90
2006,06,26,02,03,15.90
2006,06,26,02,04,15.90
2006,06,26,02,05,15.90
2006,06,26,02,06,15.90
2006,06,26,02,07,15.90
2006,06,26,02,08,15.90
2006,06,26,02,09,15.90
2006,06,26,02,10,15.90
2006,06,26,02,11,15.80
2006,06,26,02,12,15.80
2006,06,26,02,13,15.80
2006,06,26,02,14,15.80
2006,06,26,02,15,15.80
2006,06,26,02,16,15.80
2006,06,26,02,17,15.70
2006,06,26,02,18,15.70
2006,06,26,02,19,15.70
2006,06,26,02,20,15.70
2006,06,26,02,21,15.70
2006,06,26,02,22,15.70
2006,06,26,02,23,15.70
2006,06,26,02,24,15.70
2006,06,26,02,25,15.70
2006,06,26,02,26,15.70
2006,06,26,02,27,15.70
2006,06,26,02,28,15.70
2006,06,26,02,29,15.60
2006,06,26,02,30,15.60
2006,06,26,02,31,15.60
2006,06,26,02,32,15.60
2006,06,26,02,33,15.60
2006,06,26,02,34,15.60
2006,06,26,02,35,15.60
2006,06,26,02,36,15.60
2006,06,26,02,37,15.50
2006,06,26,02,38,15.50
2006,06,26,02,39,15.50
2006,06,26,02,40,15.50
2006,06,26,02,41,15.40
2006,06,26,02,42,15.40
2006,06,26,02,43,15.40
2006,06,26,02,44,15.40
2006,06,26,02,45,15.40
2006,06,26,02,46,15.40
2006,06,26,02,47,15.30
2006,06,26,02,48,15.30
2006,06,26,02,49,15.30
2006,06,26,02,50,15.30
2006,06,26,02,51,15.30
2006,06,26,02,52,15.30
2006,06,26,02,53,15.30
2006,06,26,02,54,15.20
2006,06,26,02,55,15.20
2006,06,26,02,56,15.20
2006,06,26,02,57,15.20
2006,06,26,02,58,15.20
2006,06,26,02,59,15.20
2006,06,26,03,00,15.20
2006,06,26,03,01,15.20
2006,06,26,03,02,15.20
2006,06,26,03,03,15.20
2006,06,26,03,04,15.10
2006,06,26,03,05,15.10
2006,06,26,03,06,15.00
2006,06,26,03,07,15.00
2006,06,26,03,08,15.00
2006,06,26,03,09,15.00
2006,06,26,03,10,15.00
2006,06,26,03,11,15.00
2006,06,26,03,12,15.00
2006,06,26,03,13,15.00
2006,06,26,03,14,15.00
2006,06,26,03,15,15.00
2006,06,26,03,16,15.00
2006,06,26,03,17,15.00
2006,06,26,03,18,15.00
2006,06,26,03,19,15.00
2006,06,26,03,20,15.00
2006,06,26,03,21,15.00
2006,06,26,03,22,15.00
2006,06,26,03,23,15.00
2006,06,26,03,24,15.00
2006,06,26,03,25,15.00
2006,06,26,03,26,15.00
2006,06,26,03,27,15.00
2006,06,26,03,28,15.00
2006,06,26,03,29,15.00
2006,06,26,03,30,15.00
2006,06,26,03,31,15.00
2006,06,26,03,32,15.00
2006,06,26,03,33,15.00
2006,06,26,03,34,15.00
2006,06,26,03,35,15.00
2006,06,26,03,36,15.00
2006,06,26,03,37,15.00
2006,06,26,03,38,15.00
2006,06,26,03,39,15.00
2006,06,26,03,40,15.00
2006,06,26,03,41,14.90
2006,06,26,03,42,14.90
2006,06,26,03,43,14.90
2006,06,26,03,44,14.80
2006,06,26,03,45,14.80
2006,06,26,03,46,14.80
2006,06,26,03,47,14.80
2006,06,26,03,48,14.80
2006,06,26,03,49,14.80
2006,06,26,03,50,14.70
2006,06,26,03,51,14.70
2006,06,26,03,52,14.70
2006,06,26,03,53,14.70
2006,06,26,03,54,14.70
2006,06,26,03,55,14.70
2006,06,26,03,56,14.70
2006,06,26,03,57,14.60
2006,06,26,03,58,14.60
2006,06,26,03,59,14.60
2006,06,26,04,00,14.60
2006,06,26,04,01,14.60
2006,06,26,04,02,14.60
2006,06,26,04,03,14.60
2006,06,26,04,04,14.60
2006,06,26,04,05,14.60
2006,06,26,04,06,14.60
2006,06,26,04,07,14.60
2006,06,26,04,08,14.60
2006,06,26,04,09,14.60
2006,06,26,04,10,14.60
2006,06,26,04,11,14.60
2006,06,26,04,12,14.60
2006,06,26,04,13,14.60
2006,06,26,04,14,14.70
2006,06,26,04,15,14.70
2006,06,26,04,16,14.70
2006,06,26,04,17,14.70
2006,06,26,04,18,14.70
2006,06,26,04,19,14.70
2006,06,26,04,20,14.70
2006,06,26,04,21,14.70
2006,06,26,04,22,14.70
2006,06,26,04,23,14.70
2006,06,26,04,24,14.70
2006,06,26,04,25,14.70
2006,06,26,04,26,14.70
2006,06,26,04,27,14.70
2006,06,26,04,28,14.70
2006,06,26,04,29,14.70
2006,06,26,04,30,14.70
2006,06,26,04,31,14.70
2006,06,26,04,32,14.70
2006,06,26,04,33,14.70
2006,06,26,04,34,14.70
2006,06,26,04,35,14.70
2006,06,26,04,36,14.70
2006,06,26,04,37,14.70
2006,06,26,04,38,14.70
2006,06,26,04,39,14.70
2006,06,26,04,40,14.70
2006,06,26,04,41,14.70
2006,06,26,04,42,14.70
2006,06,26,04,43,14.70
2006,06,26,04,44,14.70
2006,06,26,04,45,14.70
2006,06,26,04,46,14.70
2006,06,26,04,47,14.70
2006,06,26,04,48,14.60
2006,06,26,04,49,14.60
2006,06,26,04,50,14.60
2006,06,26,04,51,14.60
2006,06,26,04,52,14.50
2006,06,26,04,53,14.50
2006,06,26,04,54,14.50
2006,06,26,04,55,14.50
2006,06,26,04,56,14.40
2006,06,26,04,57,14.40
2006,06,26,04,58,14.40
2006,06,26,04,59,14.40
2006,06,26,05,00,14.30
2006,06,26,05,01,14.30
2006,06,26,05,02,14.30
2006,06,26,05,03,14.20
2006,06,26,05,04,14.20
2006,06,26,05,05,14.20
2006,06,26,05,06,14.20
2006,06,26,05,07,14.20
2006,06,26,05,08,14.10
2006,06,26,05,09,14.10
2006,06,26,05,10,14.10
2006,06,26,05,11,14.00
2006,06,26,05,12,13.90
2006,06,26,05,13,13.90
2006,06,26,05,14,13.80
2006,06,26,05,15,13.80
2006,06,26,05,16,13.80
2006,06,26,05,17,13.70
2006,06,26,05,18,13.70
2006,06,26,05,19,13.70
2006,06,26,05,20,13.70
2006,06,26,05,21,13.60
2006,06,26,05,22,13.60
2006,06,26,05,23,13.60
2006,06,26,05,24,13.60
2006,06,26,05,25,13.60
2006,06,26,05,26,13.60
2006,06,26,05,27,13.60
2006,06,26,05,28,13.60
2006,06,26,05,29,13.60
2006,06,26,05,30,13.50
2006,06,26,05,31,13.50
2006,06,26,05,32,13.50
2006,06,26,05,33,13.50
2006,06,26,05,34,13.50
2006,06,26,05,35,13.40
2006,06,26,05,36,13.40
2006,06,26,05,37,13.40
2006,06,26,05,38,13.40
2006,06,26,05,39,13.50
2006,06,26,05,40,13.50
2006,06,26,05,41,13.50
2006,06,26,05,42,13.50
2006,06,26,05,43,13.50
2006,06,26,05,44,13.60
2006,06,26,05,45,13.60
2006,06,26,05,46,13.60
2006,06,26,05,47,13.60
2006,06,26,05,48,13.60
2006,06,26,05,49,13.60
2006,06,26,05,50,13.70
2006,06,26,05,51,13.70
2006,06,26,05,52,13.80
2006,06,26,05,53,13.80
2006,06,26,05,54,13.80
2006,06,26,05,55,13.90
2006,06,26,05,56,13.90
2006,06,26,05,57,14.00
2006,06,26,05,58,14.10
2006,06,26,05,59,14.20
2006,06,26,06,00,14.20
2006,06,26,06,01,14.30
2006,06,26,06,02,14.40
2006,06,26,06,03,14.50
2006,06,26,06,04,14.60
2006,06,26,06,05,14.70
2006,06,26,06,06,14.80
2006,06,26,06,07,14.90
2006,06,26,06,08,15.00
2006,06,26,06,09,15.00
2006,06,26,06,10,15.00
2006,06,26,06,11,15.10
2006,06,26,06,12,15.30
2006,06,26,06,13,15.40
2006,06,26,06,14,15.50
2006,06,26,06,15,15.60
2006,06,26,06,16,15.70
2006,06,26,06,17,15.80
2006,06,26,06,18,15.80
2006,06,26,06,19,15.90
2006,06,26,06,20,16.00
2006,06,26,06,21,16.00
2006,06,26,06,22,16.00
2006,06,26,06,23,16.10
2006,06,26,06,24,16.10
2006,06,26,06,25,16.10
2006,06,26,06,26,16.10
2006,06,26,06,27,16.20
2006,06,26,06,28,16.20
2006,06,26,06,29,16.30
2006,06,26,06,30,16.40
2006,06,26,06,31,16.50
2006,06,26,06,32,16.60
2006,06,26,06,33,16.70
2006,06,26,06,34,16.70
2006,06,26,06,35,16.80
2006,06,26,06,36,16.80
2006,06,26,06,37,16.80
2006,06,26,06,38,16.80
2006,06,26,06,39,16.80
2006,06,26,06,40,16.80
2006,06,26,06,41,16.80
2006,06,26,06,42,16.90
2006,06,26,06,43,17.00
2006,06,26,06,44,17.00
2006,06,26,06,45,17.10
2006,06,26,06,46,17.20
2006,06,26,06,47,17.30
2006,06,26,06,48,17.40
2006,06,26,06,49,17.50
2006,06,26,06,50,17.60
2006,06,26,06,51,17.70
2006,06,26,06,52,17.70
2006,06,26,06,53,17.70
2006,06,26,06,54,17.70
2006,06,26,06,55,17.70
2006,06,26,06,56,17.70
2006,06,26,06,57,17.70
2006,06,26,06,58,17.70
2006,06,26,06,59,17.60
2006,06,26,07,00,17.60
2006,06,26,07,01,17.60
2006,06,26,07,02,17.60
2006,06,26,07,03,17.60
2006,06,26,07,04,17.60
2006,06,26,07,05,17.70
2006,06,26,07,06,17.70
2006,06,26,07,07,17.80
2006,06,26,07,08,17.90
2006,06,26,07,09,18.00
2006,06,26,07,10,18.10
2006,06,26,07,11,18.10
2006,06,26,07,12,18.20
2006,06,26,07,13,18.30
2006,06,26,07,14,18.40
2006,06,26,07,15,18.50
2006,06,26,07,16,18.70
2006,06,26,07,17,18.80
2006,06,26,07,18,18.90
2006,06,26,07,19,19.00
2006,06,26,07,20,19.10
2006,06,26,07,21,19.20
2006,06,26,07,22,19.20
2006,06,26,07,23,19.30
2006,06,26,07,24,19.40
2006,06,26,07,25,19.40
2006,06,26,07,26,19.50
2006,06,26,07,27,19.60
2006,06,26,07,28,19.70
2006,06,26,07,29,19.80
2006,06,26,07,30,19.90
2006,06,26,07,31,20.00
2006,06,26,07,32,20.10
2006,06,26,07,33,20.30
2006,06,26,07,34,20.40
2006,06,26,07,35,20.50
2006,06,26,07,36,20.60
2006,06,26,07,37,20.70
2006,06,26,07,38,20.70
2006,06,26,07,39,20.80
2006,06,26,07,40,20.90
2006,06,26,07,41,21.00
2006,06,26,07,42,21.10
2006,06,26,07,43,21.20
2006,06,26,07,44,21.20
2006,06,26,07,45,21.20
2006,06,26,07,46,21.30
2006,06,26,07,47,21.30
2006,06,26,07,48,21.30
2006,06,26,07,49,21.40
2006,06,26,07,50,21.40
2006,06,26,07,51,21.50
2006,06,26,07,52,21.50
2006,06,26,07,53,21.60
2006,06,26,07,54,21.60
2006,06,26,07,55,21.70
2006,06,26,07,56,21.80
2006,06,26,07,57,21.80
2006,06,26,07,58,21.80
2006,06,26,07,59,21.90
2006,06,26,08,00,22.00
2006,06,26,08,01,22.00
2006,06,26,08,02,22.10
2006,06,26,08,03,22.10
2006,06,26,08,04,22.20
2006,06,26,08,05,22.20
2006,06,26,08,06,22.20
2006,06,26,08,07,22.20
2006,06,26,08,08,22.30
2006,06,26,08,09,22.30
2006,06,26,08,10,22.30
2006,06,26,08,11,22.30
2006,06,26,08,12,22.40
2006,06,26,08,13,22.40
2006,06,26,08,14,22.50
2006,06,26,08,15,22.50
2006,06,26,08,16,22.60
2006,06,26,08,17,22.60
2006,06,26,08,18,22.60
2006,06,26,08,19,22.70
2006,06,26,08,20,22.70
2006,06,26,08,21,22.70
2006,06,26,08,22,22.70
2006,06,26,08,23,22.70
2006,06,26,08,24,22.80
2006,06,26,08,25,22.80
2006,06,26,08,26,22.80
2006,06,26,08,27,22.90
2006,06,26,08,28,23.00
2006,06,26,08,29,23.00
2006,06,26,08,30,23.00
2006,06,26,08,31,23.10
2006,06,26,08,32,23.20
2006,06,26,08,33,23.20
2006,06,26,08,34,23.20
2006,06,26,08,35,23.20
2006,06,26,08,36,23.30
2006,06,26,08,37,23.30
2006,06,26,08,38,23.40
2006,06,26,08,39,23.40
2006,06,26,08,40,23.40
2006,06,26,08,41,23.40
2006,06,26,08,42,23.60
2006,06,26,08,43,23.60
2006,06,26,08,44,23.70
2006,06,26,08,45,23.70
2006,06,26,08,46,23.70
2006,06,26,08,47,23.70
2006,06,26,08,48,23.80
2006,06,26,08,49,23.90
2006,06,26,08,50,24.00
2006,06,26,08,51,24.00
2006,06,26,08,52,24.00
2006,06,26,08,53,24.10
2006,06,26,08,54,24.10
2006,06,26,08,55,24.20
2006,06,26,08,56,24.20
2006,06,26,08,57,24.10
2006,06,26,08,58,24.10
2006,06,26,08,59,24.10
2006,06,26,09,00,24.20
2006,06,26,09,01,24.20
2006,06,26,09,02,24.20
2006,06,26,09,03,24.20
2006,06,26,09,04,24.20
2006,06,26,09,05,24.30
2006,06,26,09,06,24.30
2006,06,26,09,07,24.30
2006,06,26,09,08,24.40
2006,06,26,09,09,24.30
2006,06,26,09,10,24.30
2006,06,26,09,11,24.30
2006,06,26,09,12,24.30
2006,06,26,09,13,24.30
2006,06,26,09,14,24.20
2006,06,26,09,15,24.20
2006,06,26,09,16,24.10
2006,06,26,09,17,24.20
2006,06,26,09,18,24.20
2006,06,26,09,19,24.10
2006,06,26,09,20,24.10
2006,06,26,09,21,24.20
2006,06,26,09,22,24.30
2006,06,26,09,23,24.40
2006,06,26,09,24,24.40
2006,06,26,09,25,24.20
2006,06,26,09,26,23.90
2006,06,26,09,27,23.60
2006,06,26,09,28,23.40
2006,06,26,09,29,23.30
2006,06,26,09,30,23.20
2006,06,26,09,31,23.00
2006,06,26,09,32,22.90
2006,06,26,09,33,22.90
2006,06,26,09,34,22.90
2006,06,26,09,35,22.90
2006,06,26,09,36,22.90
2006,06,26,09,37,23.00
2006,06,26,09,38,23.10
2006,06,26,09,39,23.30
2006,06,26,09,40,23.30
2006,06,26,09,41,23.20
2006,06,26,09,42,23.20
2006,06,26,09,43,23.20
2006,06,26,09,44,23.00
2006,06,26,09,45,22.90
2006,06,26,09,46,22.80
2006,06,26,09,47,22.80
2006,06,26,09,48,22.70
2006,06,26,09,49,22.70
2006,06,26,09,50,22.70
2006,06,26,09,51,22.70
2006,06,26,09,52,22.70
2006,06,26,09,53,22.70
2006,06,26,09,54,22.80
2006,06,26,09,55,23.00
2006,06,26,09,56,23.10
2006,06,26,09,57,23.20
2006,06,26,09,58,23.20
2006,06,26,09,59,23.20
2006,06,26,10,00,23.10
2006,06,26,10,01,23.10
2006,06,26,10,02,23.10
2006,06,26,10,03,23.30
2006,06,26,10,04,23.30
2006,06,26,10,05,23.40
2006,06,26,10,06,23.60
2006,06,26,10,07,23.60
2006,06,26,10,08,23.70
2006,06,26,10,09,23.90
2006,06,26,10,10,23.90
2006,06,26,10,11,23.80
2006,06,26,10,12,23.60
2006,06,26,10,13,23.60
2006,06,26,10,14,23.50
2006,06,26,10,15,23.40
2006,06,26,10,16,23.30
2006,06,26,10,17,23.20
2006,06,26,10,18,23.10
2006,06,26,10,19,23.10
2006,06,26,10,20,23.10
2006,06,26,10,21,23.00
2006,06,26,10,22,22.90
2006,06,26,10,23,22.90
2006,06,26,10,24,22.90
2006,06,26,10,25,23.00
2006,06,26,10,26,23.00
2006,06,26,10,27,22.90
2006,06,26,10,28,22.90
2006,06,26,10,29,23.00
2006,06,26,10,30,23.10
2006,06,26,10,31,23.20
2006,06,26,10,32,23.20
2006,06,26,10,33,23.30
2006,06,26,10,34,23.50
2006,06,26,10,35,23.70
2006,06,26,10,36,23.80
2006,06,26,10,37,23.80
2006,06,26,10,38,23.90
2006,06,26,10,39,24.10
2006,06,26,10,40,24.20
2006,06,26,10,41,24.20
2006,06,26,10,42,24.10
2006,06,26,10,43,24.20
2006,06,26,10,44,24.40
2006,06,26,10,45,24.40
2006,06,26,10,46,24.30
2006,06,26,10,47,24.30
2006,06,26,10,48,24.30
2006,06,26,10,49,24.30
2006,06,26,10,50,24.20
2006,06,26,10,51,24.20
2006,06,26,10,52,24.40
2006,06,26,10,53,24.50
2006,06,26,10,54,24.40
2006,06,26,10,55,24.30
2006,06,26,10,56,24.30
2006,06,26,10,57,24.40
2006,06,26,10,58,24.40
2006,06,26,10,59,24.60
2006,06,26,11,00,24.80
2006,06,26,11,01,25.00
2006,06,26,11,02,25.20
2006,06,26,11,03,25.20
2006,06,26,11,04,25.40
2006,06,26,11,05,25.30
2006,06,26,11,06,25.20
2006,06,26,11,07,25.20
2006,06,26,11,08,25.30
2006,06,26,11,09,25.40
2006,06,26,11,10,25.40
2006,06,26,11,11,25.40
2006,06,26,11,12,25.40
2006,06,26,11,13,25.20
2006,06,26,11,14,25.10
2006,06,26,11,15,25.10
2006,06,26,11,16,25.10
2006,06,26,11,17,25.10
2006,06,26,11,18,25.10
2006,06,26,11,19,25.10
2006,06,26,11,20,25.20
2006,06,26,11,21,25.20
2006,06,26,11,22,25.30
2006,06,26,11,23,25.30
2006,06,26,11,24,25.40
2006,06,26,11,25,25.40
2006,06,26,11,26,25.40
2006,06,26,11,27,25.50
2006,06,26,11,28,25.60
2006,06,26,11,29,25.60
2006,06,26,11,30,25.40
2006,06,26,11,31,25.50
2006,06,26,11,32,25.50
2006,06,26,11,33,25.40
2006,06,26,11,34,25.40
2006,06,26,11,35,25.50
2006,06,26,11,36,25.60
2006,06,26,11,37,25.70
2006,06,26,11,38,25.80
2006,06,26,11,39,25.80
2006,06,26,11,40,25.70
2006,06,26,11,41,25.60
2006,06,26,11,42,25.60
2006,06,26,11,43,25.70
2006,06,26,11,44,25.80
2006,06,26,11,45,25.90
2006,06,26,11,46,25.90
2006,06,26,11,47,25.90
2006,06,26,11,48,25.80
2006,06,26,11,49,25.80
2006,06,26,11,50,25.90
2006,06,26,11,51,25.90
2006,06,26,11,52,25.90
2006,06,26,11,53,26.10
2006,06,26,11,54,26.10
2006,06,26,11,55,26.10
2006,06,26,11,56,26.20
2006,06,26,11,57,26.20
2006,06,26,11,58,26.20
2006,06,26,11,59,26.30
2006,06,26,12,00,26.30
2006,06,26,12,01,26.30
2006,06,26,12,02,26.10
2006,06,26,12,03,25.90
2006,06,26,12,04,25.70
2006,06,26,12,05,25.70
2006,06,26,12,06,25.90
2006,06,26,12,07,26.00
2006,06,26,12,08,26.00
2006,06,26,12,09,25.90
2006,06,26,12,10,25.70
2006,06,26,12,11,25.70
2006,06,26,12,12,25.60
2006,06,26,12,13,25.70
2006,06,26,12,14,25.80
2006,06,26,12,15,26.00
2006,06,26,12,16,26.10
2006,06,26,12,17,26.20
2006,06,26,12,18,26.00
2006,06,26,12,19,25.90
2006,06,26,12,20,25.90
2006,06,26,12,21,26.00
2006,06,26,12,22,26.20
2006,06,26,12,23,26.30
2006,06,26,12,24,26.40
2006,06,26,12,25,26.50
2006,06,26,12,26,26.60
2006,06,26,12,27,26.60
2006,06,26,12,28,26.60
2006,06,26,12,29,26.60
2006,06,26,12,30,26.70
2006,06,26,12,31,26.80
2006,06,26,12,32,26.80
2006,06,26,12,33,26.80
2006,06,26,12,34,26.70
2006,06,26,12,35,26.70
2006,06,26,12,36,26.80
2006,06,26,12,37,26.80
2006,06,26,12,38,26.80
2006,06,26,12,39,26.80
2006,06,26,12,40,26.80
2006,06,26,12,41,26.80
2006,06,26,12,42,26.90
2006,06,26,12,43,26.90
2006,06,26,12,44,26.90
2006,06,26,12,45,26.90
2006,06,26,12,46,27.00
2006,06,26,12,47,27.00
2006,06,26,12,48,27.00
2006,06,26,12,49,27.10
2006,06,26,12,50,27.10
2006,06,26,12,51,27.10
2006,06,26,12,52,27.20
2006,06,26,12,53,27.20
2006,06,26,12,54,27.20
2006,06,26,12,55,27.30
2006,06,26,12,56,27.30
2006,06,26,12,57,27.20
2006,06,26,12,58,27.20
2006,06,26,12,59,27.30
2006,06,26,13,00,27.20
2006,06,26,13,01,26.90
2006,06,26,13,02,26.60
2006,06,26,13,03,26.40
2006,06,26,13,04,26.10
2006,06,26,13,05,26.00
2006,06,26,13,06,26.00
2006,06,26,13,07,25.90
2006,06,26,13,08,25.90
2006,06,26,13,09,25.70
2006,06,26,13,10,25.70
2006,06,26,13,11,25.70
2006,06,26,13,12,25.60
2006,06,26,13,13,25.60
2006,06,26,13,14,25.50
2006,06,26,13,15,25.50
2006,06,26,13,16,25.60
2006,06,26,13,17,25.80
2006,06,26,13,18,26.10
2006,06,26,13,19,26.20
2006,06,26,13,20,26.20
2006,06,26,13,21,26.20
2006,06,26,13,22,26.20
2006,06,26,13,23,26.20
2006,06,26,13,24,26.20
2006,06,26,13,25,26.10
2006,06,26,13,26,26.00
2006,06,26,13,27,25.90
2006,06,26,13,28,26.00
2006,06,26,13,29,26.10
2006,06,26,13,30,26.30
2006,06,26,13,31,26.40
2006,06,26,13,32,26.50
2006,06,26,13,33,26.60
2006,06,26,13,34,26.80
2006,06,26,13,35,26.80
2006,06,26,13,36,26.70
2006,06,26,13,37,26.60
2006,06,26,13,38,26.60
2006,06,26,13,39,26.70
2006,06,26,13,40,26.80
2006,06,26,13,41,26.80
2006,06,26,13,42,26.70
2006,06,26,13,43,26.70
2006,06,26,13,44,26.60
2006,06,26,13,45,26.60
2006,06,26,13,46,26.70
2006,06,26,13,47,26.90
2006,06,26,13,48,27.00
2006,06,26,13,49,27.00
2006,06,26,13,50,27.10
2006,06,26,13,51,27.20
2006,06,26,13,52,27.20
2006,06,26,13,53,27.10
2006,06,26,13,54,26.90
2006,06,26,13,55,26.80
2006,06,26,13,56,26.80
2006,06,26,13,57,26.80
2006,06,26,13,58,26.70
2006,06,26,13,59,26.60
2006,06,26,14,00,26.50
2006,06,26,14,01,26.40
2006,06,26,14,02,26.30
2006,06,26,14,03,26.20
2006,06,26,14,04,26.20
2006,06,26,14,05,26.30
2006,06,26,14,06,26.40
2006,06,26,14,07,26.50
2006,06,26,14,08,26.40
2006,06,26,14,09,26.40
2006,06,26,14,10,26.40
2006,06,26,14,11,26.40
2006,06,26,14,12,26.50
2006,06,26,14,13,26.60
2006,06,26,14,14,26.70
2006,06,26,14,15,26.90
2006,06,26,14,16,26.80
2006,06,26,14,17,26.70
2006,06,26,14,18,26.50
2006,06,26,14,19,26.50
2006,06,26,14,20,26.40
2006,06,26,14,21,26.40
2006,06,26,14,22,26.40
2006,06,26,14,23,26.40
2006,06,26,14,24,26.50
2006,06,26,14,25,26.50
2006,06,26,14,26,26.50
2006,06,26,14,27,26.60
2006,06,26,14,28,26.60
2006,06,26,14,29,26.70
2006,06,26,14,30,26.80
2006,06,26,14,31,27.00
2006,06,26,14,32,27.10
2006,06,26,14,33,27.20
2006,06,26,14,34,27.20
2006,06,26,14,35,27.20
2006,06,26,14,36,27.10
2006,06,26,14,37,26.90
2006,06,26,14,38,26.80
2006,06,26,14,39,26.70
2006,06,26,14,40,26.80
2006,06,26,14,41,26.90
2006,06,26,14,42,27.00
2006,06,26,14,43,27.10
2006,06,26,14,44,27.20
2006,06,26,14,45,27.30
2006,06,26,14,46,27.20
2006,06,26,14,47,27.20
2006,06,26,14,48,27.20
2006,06,26,14,49,27.20
2006,06,26,14,50,27.10
2006,06,26,14,51,27.20
2006,06,26,14,52,27.40
2006,06,26,14,53,27.30
2006,06,26,14,54,27.20
2006,06,26,14,55,27.20
2006,06,26,14,56,27.30
2006,06,26,14,57,27.30
2006,06,26,14,58,27.30
2006,06,26,14,59,27.20
2006,06,26,15,00,27.20
2006,06,26,15,01,27.20
2006,06,26,15,02,27.10
2006,06,26,15,03,27.10
2006,06,26,15,04,27.20
2006,06,26,15,05,27.20
2006,06,26,15,06,27.30
2006,06,26,15,07,27.30
2006,06,26,15,08,27.30
2006,06,26,15,09,27.30
2006,06,26,15,10,27.30
2006,06,26,15,11,27.30
2006,06,26,15,12,27.40
2006,06,26,15,13,27.30
2006,06,26,15,14,27.30
2006,06,26,15,15,27.20
2006,06,26,15,16,27.30
2006,06,26,15,17,27.30
2006,06,26,15,18,27.20
2006,06,26,15,19,27.40
2006,06,26,15,20,27.40
2006,06,26,15,21,27.50
2006,06,26,15,22,27.60
2006,06,26,15,23,27.60
2006,06,26,15,24,27.60
2006,06,26,15,25,27.60
2006,06,26,15,26,27.50
2006,06,26,15,27,27.50
2006,06,26,15,28,27.40
2006,06,26,15,29,27.50
2006,06,26,15,30,27.50
2006,06,26,15,31,27.40
2006,06,26,15,32,27.40
2006,06,26,15,33,27.50
2006,06,26,15,34,27.50
2006,06,26,15,35,27.50
2006,06,26,15,36,27.40
2006,06,26,15,37,27.40
2006,06,26,15,38,27.50
2006,06,26,15,39,27.50
2006,06,26,15,40,27.50
2006,06,26,15,41,27.50
2006,06,26,15,42,27.60
2006,06,26,15,43,27.60
2006,06,26,15,44,27.60
2006,06,26,15,45,27.70
2006,06,26,15,46,27.80
2006,06,26,15,47,27.80
2006,06,26,15,48,27.90
2006,06,26,15,49,27.90
2006,06,26,15,50,27.90
2006,06,26,15,51,28.00
2006,06,26,15,52,28.00
2006,06,26,15,53,28.20
2006,06,26,15,54,28.30
2006,06,26,15,55,28.30
2006,06,26,15,56,28.40
2006,06,26,15,57,28.50
2006,06,26,15,58,28.60
2006,06,26,15,59,28.60
2006,06,26,16,00,28.70
2006,06,26,16,01,28.70
2006,06,26,16,02,28.70
2006,06,26,16,03,28.80
2006,06,26,16,04,29.00
2006,06,26,16,05,29.20
2006,06,26,16,06,29.20
2006,06,26,16,07,29.10
2006,06,26,16,08,29.00
2006,06,26,16,09,28.90
2006,06,26,16,10,28.80
2006,06,26,16,11,28.70
2006,06,26,16,12,28.80
2006,06,26,16,13,28.80
2006,06,26,16,14,28.90
2006,06,26,16,15,28.90
2006,06,26,16,16,28.90
2006,06,26,16,17,28.90
2006,06,26,16,18,28.90
2006,06,26,16,19,29.00
2006,06,26,16,20,29.30
2006,06,26,16,21,29.60
2006,06,26,16,22,29.80
2006,06,26,16,23,29.80
2006,06,26,16,24,29.90
2006,06,26,16,25,30.00
2006,06,26,16,26,30.10
2006,06,26,16,27,30.10
2006,06,26,16,28,30.00
2006,06,26,16,29,30.00
2006,06,26,16,30,29.90
2006,06,26,16,31,29.80
2006,06,26,16,32,29.80
2006,06,26,16,33,29.90
2006,06,26,16,34,30.00
2006,06,26,16,35,29.90
2006,06,26,16,36,29.90
2006,06,26,16,37,29.80
2006,06,26,16,38,29.80
2006,06,26,16,39,29.80
2006,06,26,16,40,29.90
2006,06,26,16,41,29.90
2006,06,26,16,42,30.00
2006,06,26,16,43,30.00
2006,06,26,16,44,30.00
2006,06,26,16,45,30.20
2006,06,26,16,46,30.30
2006,06,26,16,47,30.30
2006,06,26,16,48,30.40
2006,06,26,16,49,30.30
2006,06,26,16,50,30.30
2006,06,26,16,51,30.20
2006,06,26,16,52,30.10
2006,06,26,16,53,30.10
2006,06,26,16,54,30.10
2006,06,26,16,55,30.00
2006,06,26,16,56,30.00
2006,06,26,16,57,30.00
2006,06,26,16,58,29.90
2006,06,26,16,59,29.90
2006,06,26,17,00,29.90
2006,06,26,17,01,29.80
2006,06,26,17,02,29.80
2006,06,26,17,03,29.80
2006,06,26,17,04,29.80
2006,06,26,17,05,29.80
2006,06,26,17,06,29.80
2006,06,26,17,07,29.80
2006,06,26,17,08,29.90
2006,06,26,17,09,30.10
2006,06,26,17,10,30.30
2006,06,26,17,11,30.30
2006,06,26,17,12,30.30
2006,06,26,17,13,30.20
2006,06,26,17,14,30.20
2006,06,26,17,15,30.20
2006,06,26,17,16,30.20
2006,06,26,17,17,30.20
2006,06,26,17,18,30.30
2006,06,26,17,19,30.30